sat.trackr.live / text

‹ back to catalog

SKYKRAFT-1C

NORAD 55061 · 2023-001BE

PAYLOAD ACTIVE UNKNOWN

§ Identity

Operator
Country
AUS
Launch date
2023-01-03
Launch site
AFETR
Launch vehicle
Mass (kg)
RCS (m²)

External: N2YO · Heavens-Above · Gunter

§ Orbital elements

Epoch: 2026-09-21T17:01:58.035936Z

Period
94.40 min
Inclination
97.3094°
Eccentricity
0.0010958
Mean motion
15.25477137 rev/d
Perigee alt
481.8 km
Apogee alt
496.9 km
Semi-major
6,867.5 km
B*
7.6292e-5
RAAN
316.2024°
Arg perigee
157.3573°
Mean anomaly
202.8151°
Rev number
20,619

§ Raw data

SKYKRAFT-1C1 55061U 23001BE  26264.70969949  .00001863  00000+0  76292-4 0  99932 55061  97.3094 316.2024 0010958 157.3573 202.8151 15.25477137206192

JSON: /api/v1/satellites/55061 · /tle

For live sub-satellite position, see the globe view (requires WebGL).

§ Visibility from observer

Set your observer location to see the next 7 days of passes ≥ 10°. The values pass through the URL so the page stays shareable.

No JS? Fill the form by hand. The geolocation button needs JavaScript.